Terug naar catalogus

LICHUANHONG

ActiefWetenschapSSO
NORAD 69542·PAYLOAD·🇨🇳 China
Deze satellietnaam is nog niet bevestigd door officiële bronnen.

Gelanceerd Jun 15, 2026 vanaf Jiuquan Satellite Launch Center

Loading…

Volgende Passages (komende 24 uur)

TLE

VersSource: Space-Track

Epoch: Sep 14, 2026, 15:55 UTC

1 69542U 26134E   26257.66373013  .00003887  00000-0  24586-3 0  9997
2 69542  97.6974 328.1954 0016917 326.5886  33.4274 15.09508883 13806

Volg LICHUANHONG in realtime met AllMySat

Download on the App Store